User: anonymous   Login
Location: Aultman
(40.9284°N, 81.4173°W)
Time: 11:41:50
(UTC+00:00)
Language:

SJ 16-02 - Orbit

View from above orbital plane
View from above orbital plane
View from above satellite
View from above satellite

Ground track
Ground track

The orbit data is extracted from the following two-line orbital elements,

1 41634U 16043A   21103.19698172  .00000140  00000-0  19242-4 0  9999
2 41634  75.0019 232.2191 0008310 292.0924  67.9425 14.85785752259755
Epoch (UTC): 13 April 2021 04:43:39
Eccentricity: 0.0008310
inclination: 75.0019°
perigee height: 605 km
apogee height: 617 km
right ascension of ascending node: 232.2191°
argument of perigee: 292.0924°
revolutions per day: 14.85785752
mean anomaly at epoch: 67.9425°
orbit number at epoch: 25975

The dashed part of the orbit path shows where the satellite is in the earth's shadow,  

DLR